User: anonymous
Location: Oshawa
(43.9000°N, 78.8670°W)
Time: 02:23:14
(UTC-04:00)
Language:

Iridium 54 - Orbit

View from above orbital plane
View from above orbital plane
View from above satellite
View from above satellite

Ground track
Ground track

The orbit data is extracted from the following two-line orbital elements,

1 25171U 98010C   14274.42142017  .00000527  00000-0  18107-3 0  9380
2 25171 086.3983 044.0867 0002287 112.7925 247.3512 14.34214097870060
Epoch (UTC): 01 October 2014 10:06:50
Eccentricity: 0.0002287
inclination: 86.3983°
perigee height: 776 km
apogee height: 779 km
right ascension of ascending node: 44.0867°
argument of perigee: 112.7925°
revolutions per day: 14.34214097
mean anomaly at epoch: 247.3512°
orbit number at epoch: 87006

The dashed part of the orbit path shows where the satellite is in the earth's shadow,  

DLR